"2010-07-14 00:00:00",1149,6.52,323,0.933,0.11,23.89,111.2737,28.17,29.12,20.51,0,111.4,13.07,29.02,285.0
"2010-07-14 00:00:30",1150,5.853,323.9,2.465,0.428,23.88,111.2756,28.17,29.1,20.55,0,111.4,13.06,29.02,285.9
"2010-07-14 00:01:00",1151,5.578,334.9,7.763,0.75,24.08,111.2762,28.18,29.1,20.29,0,111.4,13.06,29.03,296.9
"2010-07-14 00:01:30",1152,5.761,329.1,6.904,0.423,24.13,111.2842,28.2,29.11,19.95,0,111.4,13.06,29.05,291.1
"2010-07-14 00:02:00",1153,7.005,334.3,6.912,0.605,23.89,111.2855,28.2,29.12,20.8,0,111.4,13.06,29.05,296.3
"2010-07-14 00:02:30",1154,6.459,336.1,5.829,0.389,24.07,111.2822,28.19,29.11,20.51,0,111.4,13.06,29.04,298.1
"2010-07-14 00:03:00",1155,6.078,328.1,5.791,0.413,23.96,111.2749,28.17,29.11,21.06,0,111.4,13.06,29.02,290.1
"2010-07-14 00:03:30",1156,6.343,324.5,2.261,0.202,24.06,111.2741,28.17,29.09,21.32,0,111.4,13.06,29.02,286.5
"2010-07-14 00:04:00",1157,6.654,340.7,9.64,0.713,24.19,111.2796,28.18,29.1,20.32,0,111.4,13.06,29.03,302.7
"2010-07-14 00:04:30",1158,5.151,342.9,7.824,0.667,24.08,111.2816,28.19,29.11,20.66,0,111.4,13.06,29.04,304.9
"2010-07-14 00:05:00",1159,4.623,339,6.618,0.79,24.33,111.2811,28.19,29.08,20.14,0,111.4,13.07,29.04,301.0
"2010-07-14 00:05:30",1160,5.175,343.1,7.29,0.486,24.59,111.3037,28.25,29.13,19.91,0,111.4,13.07,29.10,305.1
"2010-07-14 00:06:00",1161,2.855,0.676,13.92,0.895,24.88,111.3303,28.31,29.16,19.06,0,111.4,13.07,29.17,322.7
"2010-07-14 00:06:30",1162,3.244,357.3,10.57,1.19,24.96,111.3717,28.42,29.21,18.78,0,111.4,13.07,29.27,319.3
"2010-07-14 00:07:00",1163,5.33,345,4.622,0.45,24.94,111.4028,28.5,29.29,18.66,0,111.4,13.07,29.35,307.0
"2010-07-14 00:07:30",1164,4.284,339,6.964,0.781,24.84,111.4146,28.53,29.33,18.69,0,111.4,13.07,29.38,301.0
"2010-07-14 00:08:00",1165,3.594,334,4.84,0.362,24.81,111.4177,28.54,29.37,19.18,0,111.4,13.07,29.39,296.0
"2010-07-14 00:08:30",1166,2.838,351.5,9.95,0.958,24.53,111.4141,28.53,29.39,20.48,0,111.4,13.07,29.38,313.5
"2010-07-14 00:09:00",1167,3.307,340.5,8.81,0.443,24.21,111.3613,28.39,29.3,22.09,0,111.4,13.07,29.25,302.5
"2010-07-14 00:09:30",1168,3.585,334.6,7.899,0.734,24.22,111.297,28.23,29.22,22.52,0,111.4,13.07,29.08,296.6
"2010-07-14 00:10:00",1169,4.125,350.4,4.019,0.575,24.65,111.2709,28.16,29.15,21.38,0,111.4,13.07,29.01,312.4
"2010-07-14 00:10:30",1170,4.788,340.8,6.305,0.286,24.67,111.2723,28.17,29.12,20.61,0,111.4,13.07,29.02,302.8
"2010-07-14 00:11:00",1171,4.552,323.5,4.494,0.496,24.59,111.2757,28.17,29.11,20.89,0,111.4,13.07,29.02,285.5
"2010-07-14 00:11:30",1172,4.188,333.3,7.265,0.436,24.5,111.2659,28.15,29.1,20.94,0,111.4,13.07,29.00,295.3
"2010-07-14 00:12:00",1173,4.609,332.7,5.495,0.645,24.85,111.2663,28.15,29.08,20.03,0,111.4,13.08,29.00,294.7
"2010-07-14 00:12:30",1174,5.516,333.8,6.012,0.331,24.88,111.2963,28.23,29.1,19.55,0,111.4,13.08,29.08,295.8
"2010-07-14 00:13:00",1175,5.008,335.8,5.352,0.376,24.81,111.3253,28.3,29.13,19.56,0,111.4,13.08,29.15,297.8
"2010-07-14 00:13:30",1176,4.298,339.5,3.626,0.299,24.93,111.3351,28.33,29.15,19.07,0,111.4,13.08,29.18,301.5
"2010-07-14 00:14:00",1177,3.607,340,7.982,0.296,24.85,111.3559,28.38,29.18,19.28,0,111.4,13.08,29.23,302.0
"2010-07-14 00:14:30",1178,3.247,346.9,3.079,0.246,24.81,111.3667,28.41,29.21,19.27,0,111.4,13.08,29.26,308.9
"2010-07-14 00:15:00",1179,3.713,338.9,3.51,0.116,24.86,111.3712,28.42,29.23,19.08,0,111.4,13.08,29.27,300.9
"2010-07-14 00:15:30",1180,3.792,341.4,3.115,0.14,24.92,111.383,28.45,29.25,18.93,0,111.4,13.08,29.30,303.4
"2010-07-14 00:16:00",1181,3.725,355.8,12.02,1.174,25.02,111.4007,28.5,29.29,18.56,0,111.4,13.08,29.35,317.8
"2010-07-14 00:16:30",1182,2.805,12.04,12.3,0.571,24.99,111.4175,28.54,29.32,18.36,0,111.4,13.07,29.39,334.0
"2010-07-14 00:17:00",1183,2.595,355.1,4.271,0.499,25.07,111.4366,28.59,29.37,18.48,0,111.4,13.07,29.44,317.1
"2010-07-14 00:17:30",1184,2.931,353.1,4.18,0.576,25.01,111.4481,28.62,29.39,18.64,0,111.4,13.07,29.47,315.1
"2010-07-14 00:18:00",1185,4.01,341.1,4.131,0.321,24.75,111.4452,28.61,29.42,19.03,0,111.4,13.07,29.46,303.1
"2010-07-14 00:18:30",1186,4.384,342.4,2.765,0.157,24.86,111.4383,28.59,29.42,18.92,0,111.4,13.07,29.44,304.4
"2010-07-14 00:19:00",1187,3.93,344.5,4.113,0.402,24.9,111.4389,28.59,29.42,18.81,0,111.4,13.07,29.45,306.5
"2010-07-14 00:19:30",1188,4.449,345.7,3.07,0.262,24.94,111.4396,28.6,29.4,18.76,0,111.4,13.07,29.45,307.7
"2010-07-14 00:20:00",1189,3.656,349,6.098,0.788,24.99,111.4418,28.6,29.41,18.8,0,111.4,13.07,29.45,311.0
"2010-07-14 00:20:30",1190,4.169,342.3,2.419,0.158,25.01,111.443,28.6,29.42,18.66,0,111.4,13.07,29.46,304.3
"2010-07-14 00:21:00",1191,3.809,338.1,5.19,0.389,25.02,111.4458,28.61,29.45,18.58,0,111.4,13.07,29.46,300.1
"2010-07-14 00:21:30",1192,3.353,334,4.807,0.188,25.02,111.4524,28.63,29.47,18.58,0,111.4,13.07,29.48,296.0
"2010-07-14 00:22:00",1193,3.708,339.6,6.211,0.243,24.94,111.4549,28.63,29.48,18.49,0,111.4,13.08,29.49,301.6
"2010-07-14 00:22:30",1194,2.871,354,68.93,0.735,24.87,111.4543,28.63,29.49,18.45,0,111.4,13.08,29.49,316.0
"2010-07-14 00:23:00",1195,2.54,355.5,74.37,0.383,24.9,111.4518,28.63,29.48,18.52,0,111.4,13.08,29.48,317.5
"2010-07-14 00:23:30",1196,3.836,349.4,21.72,0.932,24.97,111.4521,28.63,29.48,18.35,0,111.4,13.08,29.48,311.4
"2010-07-14 00:24:00",1197,3.147,358.1,63.54,0.682,25.01,111.4526,28.63,29.49,18.45,0,111.4,13.08,29.48,320.1
"2010-07-14 00:24:30",1198,2.858,350.1,63.99,0.619,25.06,111.4633,28.66,29.5,18.28,0,111.4,13.08,29.51,312.1
"2010-07-14 00:25:00",1199,3.333,333.4,3.971,0.167,24.98,111.4765,28.69,29.52,18.62,0,111.4,13.08,29.54,295.4
"2010-07-14 00:25:30",1200,2.925,329.8,1.926,0.094,25.03,111.4776,28.69,29.53,18.66,0,111.4,13.08,29.55,291.8
"2010-07-14 00:26:00",1201,3.022,331.9,2.974,0.281,25.01,111.4773,28.69,29.54,18.54,0,111.4,13.08,29.54,293.9
"2010-07-14 00:26:30",1202,2.878,344.6,6.621,0.366,25,111.4776,28.69,29.54,18.49,0,111.4,13.08,29.55,306.6
"2010-07-14 00:27:00",1203,2.545,347.6,2.767,0.149,24.94,111.4776,28.69,29.56,18.55,0,111.4,13.08,29.55,309.6
"2010-07-14 00:27:30",1204,2.435,342,4.68,0.166,24.94,111.4782,28.69,29.56,18.5,0,111.4,13.08,29.55,304.0
"2010-07-14 00:28:00",1205,2.341,345.1,3.632,0.102,24.95,111.479,28.7,29.58,18.47,0,111.4,13.08,29.55,307.1
"2010-07-14 00:28:30",1206,2.272,344.5,2.337,0.137,24.93,111.479,28.7,29.58,18.53,0,111.4,13.08,29.55,306.5
"2010-07-14 00:29:00",1207,2.346,339.3,2.723,0.194,25,111.4807,28.7,29.58,18.38,0,111.4,13.08,29.55,301.3
"2010-07-14 00:29:30",1208,2.488,336.1,1.52,0.09,24.99,111.488,28.72,29.6,18.27,0,111.4,13.08,29.57,298.1
"2010-07-14 00:30:00",1209,2.274,337.7,3.172,0.111,25.04,111.4989,28.75,29.62,18.31,0,111.4,13.08,29.60,299.7
"2010-07-14 00:30:30",1210,2.339,340.3,3.219,0.083,24.97,111.5035,28.76,29.61,18.33,0,111.3,13.08,29.61,302.3
"2010-07-14 00:31:00",1211,2.535,335.4,2.988,0.082,25.01,111.5091,28.77,29.63,18.08,0,111.4,13.08,29.63,297.4
"2010-07-14 00:31:30",1212,2.284,334,1.693,0.09,25.06,111.5141,28.79,29.64,18.1,0,111.4,13.08,29.64,296.0
"2010-07-14 00:32:00",1213,2.158,339.2,2.003,0.121,24.88,111.5141,28.79,29.66,18.39,0,111.3,13.08,29.64,301.2
"2010-07-14 00:32:30",1214,2.383,342.4,3.221,0.082,24.97,111.5123,28.78,29.64,17.98,0,111.4,13.08,29.63,304.4
"2010-07-14 00:33:00",1215,2.086,345.8,3.569,0.107,24.86,111.5207,28.8,29.66,17.98,0,111.3,13.08,29.66,307.8
"2010-07-14 00:33:30",1216,2.197,344.2,6.396,0.201,24.94,111.5241,28.81,29.66,17.99,0,111.3,13.08,29.67,306.2
"2010-07-14 00:34:00",1217,0.955,1.407,5.613,0.22,24.95,111.5222,28.81,29.66,18.03,0,111.3,13.08,29.66,323.4
"2010-07-14 00:34:30",1218,0.978,357.8,6.323,0.336,24.96,111.5254,28.82,29.67,17.95,0,111.3,13.08,29.67,319.8
"2010-07-14 00:35:00",1219,1.388,358.5,5.079,0.191,24.92,111.5296,28.83,29.68,17.89,0,111.3,13.08,29.68,320.5
"2010-07-14 00:35:30",1220,1.174,4.726,5.498,0.313,24.9,111.535,28.84,29.69,17.86,0,111.3,13.08,29.69,326.7
"2010-07-14 00:36:00",1221,1.542,17.38,3.699,0.179,24.9,111.5447,28.87,29.69,17.59,0,111.3,13.08,29.72,339.4
"2010-07-14 00:36:30",1222,1.784,16.03,2.678,0.087,24.84,111.5547,28.89,29.72,17.47,0,111.3,13.08,29.74,338.0
"2010-07-14 00:37:00",1223,1.68,22.54,2.314,0.186,24.92,111.5593,28.9,29.72,17.47,0,111.3,13.08,29.76,344.5
"2010-07-14 00:37:30",1224,1.359,21.97,2.939,0.156,24.91,111.5625,28.91,29.74,17.44,0,111.3,13.08,29.76,344.0
"2010-07-14 00:38:00",1225,1.348,19.74,2.209,0.136,24.93,111.5662,28.92,29.74,17.42,0,111.3,13.08,29.77,341.7
"2010-07-14 00:38:30",1226,1.259,14.26,4.33,0.18,24.94,111.5671,28.92,29.75,17.46,0,111.3,13.08,29.78,336.3
"2010-07-14 00:39:00",1227,1.382,20.24,2.5,0.116,24.95,111.5699,28.93,29.77,17.44,0,111.3,13.08,29.78,342.2
"2010-07-14 00:39:30",1228,1.438,23.11,3.908,0.093,24.95,111.5718,28.94,29.78,17.38,0,111.3,13.08,29.79,345.1
"2010-07-14 00:40:00",1229,1.161,20.35,3.984,0.134,24.96,111.5734,28.94,29.78,17.44,0,111.3,13.08,29.79,342.4
"2010-07-14 00:40:30",1230,1.423,31.56,2.673,0.113,24.92,111.5752,28.94,29.78,17.34,0,111.3,13.09,29.80,353.6
"2010-07-14 00:41:00",1231,1.441,37.5,2.828,0.098,24.93,111.5709,28.93,29.78,17.26,0,111.3,13.09,29.79,359.5
"2010-07-14 00:41:30",1232,1.45,34.57,2.049,0.101,24.95,111.57,28.93,29.79,17.25,0,111.3,13.09,29.78,356.6
"2010-07-14 00:42:00",1233,1.515,30.88,3.705,0.128,24.96,111.5709,28.93,29.79,17.29,0,111.3,13.09,29.79,352.9
"2010-07-14 00:42:30",1234,1.734,26.53,2.153,0.149,25.01,111.5706,28.93,29.78,17.59,0,111.3,13.09,29.79,348.5
"2010-07-14 00:43:00",1235,1.547,22.24,4.489,0.162,25.07,111.5706,28.93,29.79,17.67,0,111.3,13.09,29.79,344.2
"2010-07-14 00:43:30",1236,1.52,17.31,2.294,0.241,25.07,111.5717,28.94,29.81,17.64,0,111.3,13.09,29.79,339.3
"2010-07-14 00:44:00",1237,1.296,8.62,4.354,0.17,25.07,111.5786,28.95,29.8,17.57,0,111.3,13.09,29.81,330.6
"2010-07-14 00:44:30",1238,1.28,354.5,5.691,0.239,25.13,111.5803,28.96,29.81,17.54,0,111.3,13.09,29.81,316.5
"2010-07-14 00:45:00",1239,1.316,351.2,7.251,0.148,25.14,111.5964,29,29.83,17.37,0,111.3,13.09,29.85,313.2
"2010-07-14 00:45:30",1240,1.449,349.1,10.15,0.111,25.07,111.6062,29.02,29.83,17.37,0,111.3,13.09,29.88,311.1
"2010-07-14 00:46:00",1241,1.21,4.552,3.956,0.119,25.01,111.6068,29.03,29.84,17.51,0,111.3,13.09,29.88,326.6
"2010-07-14 00:46:30",1242,1.17,20.21,3.433,0.099,25.06,111.6068,29.03,29.84,17.51,0,111.3,13.09,29.88,342.2
"2010-07-14 00:47:00",1243,0.909,28.24,2.774,0.084,25.14,111.6026,29.01,29.85,17.48,0,111.3,13.09,29.87,350.2
"2010-07-14 00:47:30",1244,0.872,33.79,4.806,0.047,25.14,111.5944,28.99,29.87,17.4,0,111.3,13.09,29.85,355.8
"2010-07-14 00:48:00",1245,0.8,42.11,3.048,0.061,25.11,111.5846,28.97,29.84,17.27,0,111.3,13.09,29.82,4.1
"2010-07-14 00:48:30",1246,0.691,43.24,3.149,0.051,25.14,111.5832,28.96,29.84,17.14,0,111.3,13.09,29.82,5.2
"2010-07-14 00:49:00",1247,0.789,35.69,2.488,0.063,25.13,111.5832,28.96,29.84,17.11,0,111.3,13.09,29.82,357.7
"2010-07-14 00:49:30",1248,0.759,38.92,3.27,0.036,25.12,111.584,28.97,29.84,17.07,0,111.3,13.09,29.82,0.9
"2010-07-14 00:50:00",1249,0.792,41.61,2.134,0.076,25.13,111.5843,28.97,29.85,17.06,0,111.3,13.09,29.82,3.6
"2010-07-14 00:50:30",1250,0.716,46.33,1.218,0.044,25.14,111.5852,28.97,29.83,17.06,0,111.3,13.09,29.82,8.3
"2010-07-14 00:51:00",1251,0.699,46.74,1.973,0.026,25.15,111.5874,28.98,29.85,17.03,0,111.3,13.09,29.83,8.7
"2010-07-14 00:51:30",1252,0.631,57.11,4.746,0.091,25.2,111.5905,28.98,29.86,17.03,0,111.3,13.09,29.84,19.1
"2010-07-14 00:52:00",1253,0.521,61.75,3.175,0.061,25.15,111.5903,28.98,29.86,17,0,111.3,13.09,29.84,23.8
"2010-07-14 00:52:30",1254,0.485,57.46,4.698,0.046,25.18,111.593,28.99,29.85,16.98,0,111.3,13.09,29.84,19.5
"2010-07-14 00:53:00",1255,0.526,55.56,2.672,0.036,25.22,111.5962,29,29.85,16.95,0,111.3,13.09,29.85,17.6
"2010-07-14 00:53:30",1256,0.438,55.98,4.47,0.039,25.17,111.5991,29.01,29.85,16.94,0,111.3,13.09,29.86,18.0
"2010-07-14 00:54:00",1257,0.551,57.01,2.565,0.178,25.2,111.5965,29,29.85,16.94,0,111.3,13.09,29.85,19.0
"2010-07-14 00:54:30",1258,0.778,55.13,2.041,0.044,25.27,111.6047,29.02,29.85,16.94,0,111.3,13.09,29.87,17.1
"2010-07-14 00:55:00",1259,0.747,57.09,4.433,0.035,25.27,111.6084,29.03,29.86,16.89,0,111.3,13.09,29.88,19.1
"2010-07-14 00:55:30",1260,0.579,60.48,2.264,0.064,25.18,111.613,29.04,29.88,16.85,0,111.3,13.09,29.89,22.5
"2010-07-14 00:56:00",1261,0.54,59.4,3.18,0.044,25.19,111.6108,29.04,29.87,16.85,0,111.3,13.09,29.89,21.4
"2010-07-14 00:56:30",1262,0.603,59.68,2.187,0.066,25.25,111.6099,29.03,29.87,16.85,0,111.3,13.09,29.89,21.7
"2010-07-14 00:57:00",1263,0.688,58.27,2.278,0.081,25.28,111.6108,29.04,29.86,16.93,0,111.3,13.09,29.89,20.3
"2010-07-14 00:57:30",1264,0.518,53.53,5.767,0.043,25.24,111.6102,29.03,29.88,16.93,0,111.3,13.09,29.89,15.5
"2010-07-14 00:58:00",1265,0.625,56.74,4.302,0.114,25.26,111.6118,29.04,29.88,16.93,0,111.3,13.09,29.89,18.7
"2010-07-14 00:58:30",1266,0.827,54.89,3.275,0.073,25.25,111.6108,29.04,29.88,16.91,0,111.3,13.09,29.89,16.9
"2010-07-14 00:59:00",1267,0.924,55.3,1.919,0.067,25.23,111.6112,29.04,29.88,16.92,0,111.3,13.09,29.89,17.3
"2010-07-14 00:59:30",1268,0.859,68.08,4.463,0.049,25.24,111.6121,29.04,29.9,16.91,0,111.3,13.09,29.89,30.1
"2010-07-14 01:00:00",1269,0.958,65.89,2.555,0.105,25.22,111.6143,29.04,29.9,16.87,0,111.3,13.09,29.90,27.9
"2010-07-14 01:00:30",1270,1.027,59.96,3.616,0.074,25.25,111.6143,29.04,29.91,16.85,0,111.3,13.09,29.90,22.0
"2010-07-14 01:01:00",1271,1.14,62.63,2.066,0.085,25.26,111.6136,29.04,29.91,16.86,0,111.3,13.09,29.90,24.6
"2010-07-14 01:01:30",1272,1.15,60.02,1.622,0.086,25.24,111.6155,29.05,29.9,16.93,0,111.3,13.09,29.90,22.0
"2010-07-14 01:02:00",1273,1.38,62.56,1.709,0.069,25.28,111.6176,29.05,29.9,16.95,0,111.3,13.09,29.91,24.6
"2010-07-14 01:02:30",1274,1.343,63.69,2.4,0.131,25.25,111.6187,29.06,29.91,16.95,0,111.3,13.09,29.91,25.7
"2010-07-14 01:03:00",1275,1.206,56.52,3.75,0.072,25.21,111.6195,29.06,29.91,16.91,0,111.3,13.09,29.91,18.5
"2010-07-14 01:03:30",1276,1.293,56.42,1.459,0.047,25.23,111.6198,29.06,29.91,16.95,0,111.3,13.09,29.91,18.4
"2010-07-14 01:04:00",1277,1.312,57.78,1.561,0.056,25.27,111.6226,29.07,29.92,16.99,0,111.3,13.09,29.92,19.8
"2010-07-14 01:04:30",1278,1.248,52.72,2.171,0.045,25.24,111.6243,29.07,29.91,17.02,0,111.4,13.09,29.92,14.7
"2010-07-14 01:05:00",1279,1.24,52.14,2.518,0.057,25.21,111.6263,29.08,29.92,16.91,0,111.3,13.09,29.93,14.1
"2010-07-14 01:05:30",1280,1.227,55.1,3.17,0.073,25.18,111.6249,29.07,29.93,16.89,0,111.3,13.09,29.93,17.1
"2010-07-14 01:06:00",1281,1.356,49.62,1.236,0.037,25.22,111.6237,29.07,29.94,16.89,0,111.3,13.09,29.92,11.6
"2010-07-14 01:06:30",1282,1.282,47.66,1.196,0.052,25.25,111.6235,29.07,29.93,16.92,0,111.4,13.09,29.92,9.7
"2010-07-14 01:07:00",1283,1.251,46.99,2.591,0.087,25.23,111.6223,29.07,29.93,16.9,0,111.3,13.09,29.92,9.0
"2010-07-14 01:07:30",1284,1.27,42.56,1.989,0.069,25.26,111.624,29.07,29.93,16.9,0,111.3,13.09,29.92,4.6
"2010-07-14 01:08:00",1285,1.448,39.68,2.478,0.087,25.22,111.6243,29.07,29.93,16.85,0,111.3,13.09,29.92,1.7
"2010-07-14 01:08:30",1286,1.154,33.76,2.379,0.175,25.25,111.6235,29.07,29.93,16.88,0,111.3,13.09,29.92,355.8
"2010-07-14 01:09:00",1287,1.129,34.34,2.259,0.114,25.29,111.6209,29.06,29.92,16.87,0,111.3,13.09,29.92,356.3
"2010-07-14 01:09:30",1288,1.025,35.21,3.038,0.153,25.25,111.6176,29.05,29.93,16.83,0,111.3,13.08,29.91,357.2
"2010-07-14 01:10:00",1289,1.121,34.23,4.528,0.231,25.25,111.6162,29.05,29.93,16.82,0,111.3,13.08,29.90,356.2
"2010-07-14 01:10:30",1290,1.386,42.4,2.075,0.041,25.21,111.6162,29.05,29.93,16.79,0,111.3,13.08,29.90,4.4
"2010-07-14 01:11:00",1291,1.406,40.57,2.578,0.048,25.22,111.6162,29.05,29.93,16.76,0,111.3,13.08,29.90,2.6
"2010-07-14 01:11:30",1292,1.464,38.75,1.47,0.08,25.24,111.6162,29.05,29.91,16.87,0,111.3,13.08,29.90,0.8
"2010-07-14 01:12:00",1293,1.46,43.46,2.134,0.057,25.27,111.6162,29.05,29.91,16.95,0,111.3,13.08,29.90,5.5
"2010-07-14 01:12:30",1294,1.531,45.41,1.052,0.102,25.27,111.6178,29.05,29.93,16.94,0,111.3,13.08,29.91,7.4
"2010-07-14 01:13:00",1295,1.722,47.82,1.663,0.068,25.26,111.6187,29.06,29.93,16.84,0,111.3,13.09,29.91,9.8
"2010-07-14 01:13:30",1296,1.707,50.69,1.419,0.077,25.25,111.6181,29.05,29.92,16.87,0,111.3,13.09,29.91,12.7
"2010-07-14 01:14:00",1297,1.555,49.9,2.095,0.037,25.3,111.617,29.05,29.94,16.93,0,111.3,13.09,29.91,11.9
"2010-07-14 01:14:30",1298,1.452,52.25,2.06,0.052,25.28,111.6198,29.06,29.92,16.93,0,111.3,13.09,29.91,14.2
"2010-07-14 01:15:00",1299,1.365,57.39,1.395,0.088,25.21,111.6195,29.06,29.93,16.91,0,111.3,13.09,29.91,19.4
"2010-07-14 01:15:30",1300,1.236,56.51,3.065,0.048,25.24,111.6195,29.06,29.95,16.95,0,111.3,13.09,29.91,18.5
"2010-07-14 01:16:00",1301,1.303,63.84,2.4,0.074,25.29,111.624,29.07,29.94,16.95,0,111.3,13.09,29.92,25.8
"2010-07-14 01:16:30",1302,1.543,64.73,2.788,0.069,25.23,111.6243,29.07,29.94,16.96,0,111.3,13.09,29.92,26.7
"2010-07-14 01:17:00",1303,1.504,66.76,1.758,0.086,25.27,111.6243,29.07,29.94,16.96,0,111.3,13.09,29.92,28.8
"2010-07-14 01:17:30",1304,1.573,70.97,1.489,0.067,25.3,111.6237,29.07,29.94,16.97,0,111.3,13.09,29.92,33.0
"2010-07-14 01:18:00",1305,1.406,75.62,1.22,0.063,25.26,111.6232,29.07,29.93,16.92,0,111.3,13.09,29.92,37.6
"2010-07-14 01:18:30",1306,1.387,77.21,2.021,0.041,25.24,111.6232,29.07,29.94,16.95,0,111.3,13.09,29.92,39.2
"2010-07-14 01:19:00",1307,1.285,80.5,1.031,0.047,25.26,111.6215,29.06,29.94,16.98,0,111.3,13.09,29.92,42.5
"2010-07-14 01:19:30",1308,1.243,80.9,0.974,0.057,25.3,111.624,29.07,29.94,16.97,0,111.3,13.09,29.92,42.9
"2010-07-14 01:20:00",1309,1.252,81.1,1.539,0.049,25.28,111.6246,29.07,29.94,16.96,0,111.3,13.09,29.92,43.1
"2010-07-14 01:20:30",1310,1.177,82.9,1.959,0.042,25.28,111.6254,29.07,29.95,16.96,0,111.3,13.09,29.93,44.9
"2010-07-14 01:21:00",1311,1.139,84.9,1.446,0.036,25.27,111.626,29.08,29.95,16.97,0,111.3,13.09,29.93,46.9
"2010-07-14 01:21:30",1312,1.224,90,2.14,0.079,25.28,111.6254,29.07,29.95,16.87,0,111.3,13.09,29.93,52.0
"2010-07-14 01:22:00",1313,1.158,97.2,4.809,0.055,25.25,111.6246,29.07,29.95,16.84,0,111.3,13.09,29.92,59.2
"2010-07-14 01:22:30",1314,1.158,98.6,2.154,0.074,25.21,111.6204,29.06,29.95,16.84,0,111.3,13.09,29.91,60.6
"2010-07-14 01:23:00",1315,1.244,98.2,1.876,0.076,25.22,111.6167,29.05,29.93,16.84,0,111.3,13.09,29.90,60.2
"2010-07-14 01:23:30",1316,1.278,99.9,1.746,0.042,25.22,111.6164,29.05,29.93,16.82,0,111.3,13.09,29.90,61.9
"2010-07-14 01:24:00",1317,1.279,99.8,1.694,0.038,25.24,111.6162,29.05,29.94,16.83,0,111.3,13.09,29.90,61.8
"2010-07-14 01:24:30",1318,1.367,101.8,1.725,0.07,25.25,111.6162,29.05,29.95,16.87,0,111.3,13.09,29.90,63.8
"2010-07-14 01:25:00",1319,1.375,102.8,1.603,0.033,25.24,111.6162,29.05,29.92,16.84,0,111.3,13.09,29.90,64.8
"2010-07-14 01:25:30",1320,1.47,104,0.912,0.05,25.21,111.6162,29.05,29.94,16.81,0,111.3,13.09,29.90,66.0
"2010-07-14 01:26:00",1321,1.457,102.3,2.609,0.074,25.24,111.6162,29.05,29.94,16.77,0,111.3,13.09,29.90,64.3
"2010-07-14 01:26:30",1322,1.385,98.9,1.647,0.058,25.3,111.6162,29.05,29.94,16.81,0,111.3,13.09,29.90,60.9
"2010-07-14 01:27:00",1323,1.372,96.4,2.597,0.057,25.31,111.6162,29.05,29.92,16.8,0,111.3,13.09,29.90,58.4
"2010-07-14 01:27:30",1324,1.414,96.7,2.311,0.084,25.35,111.6162,29.05,29.92,16.79,0,111.3,13.09,29.90,58.7
"2010-07-14 01:28:00",1325,1.408,94.3,3.186,0.079,25.34,111.6164,29.05,29.93,16.78,0,111.3,13.09,29.90,56.3
"2010-07-14 01:28:30",1326,1.191,98.3,2.073,0.128,25.37,111.6206,29.06,29.94,16.72,0,111.3,13.09,29.91,60.3
"2010-07-14 01:29:00",1327,0.992,95.9,3.091,0.058,25.44,111.6366,29.1,29.93,16.59,0,111.3,13.09,29.96,57.9
"2010-07-14 01:29:30",1328,0.99,98.3,4.657,0.088,25.43,111.6493,29.13,29.98,16.59,0,111.3,13.08,29.99,60.3
"2010-07-14 01:30:00",1329,1.085,99.5,4.198,0.077,25.5,111.6524,29.14,29.99,16.48,0,111.3,13.09,30.00,61.5
"2010-07-14 01:30:30",1330,0.953,102.6,3.28,0.051,25.53,111.6681,29.18,30.01,16.36,0,111.3,13.09,30.04,64.6
"2010-07-14 01:31:00",1331,1.007,108.6,3.735,0.068,25.5,111.6832,29.22,30.03,16.33,0,111.3,13.09,30.08,70.6
"2010-07-14 01:31:30",1332,0.985,110.6,2.401,0.042,25.48,111.6866,29.23,30.06,16.29,0,111.3,13.09,30.08,72.6
"2010-07-14 01:32:00",1333,1.109,113.4,2.015,0.052,25.47,111.693,29.25,30.07,16.28,0,111.3,13.09,30.10,75.4
"2010-07-14 01:32:30",1334,1.151,117.6,3.795,0.039,25.46,111.702,29.27,30.09,16.27,0,111.3,13.09,30.12,79.6
"2010-07-14 01:33:00",1335,1.155,120.8,3.715,0.076,25.49,111.7076,29.29,30.11,16.23,0,111.3,13.09,30.14,82.8
"2010-07-14 01:33:30",1336,1.208,118.2,1.982,0.031,25.48,111.7141,29.3,30.14,16.23,0,111.3,13.09,30.16,80.2
"2010-07-14 01:34:00",1337,1.211,123.7,1.269,0.031,25.52,111.7175,29.31,30.13,16.2,0,111.3,13.09,30.16,85.7
"2010-07-14 01:34:30",1338,1.251,124.6,2.985,0.084,25.5,111.7175,29.31,30.15,16.18,0,111.3,13.09,30.16,86.6
"2010-07-14 01:35:00",1339,1.359,120.5,1.65,0.037,25.46,111.7175,29.31,30.15,16.24,0,111.3,13.09,30.16,82.5
"2010-07-14 01:35:30",1340,1.361,125.4,2.529,0.091,25.52,111.7169,29.31,30.16,16.21,0,111.3,13.09,30.16,87.4
"2010-07-14 01:36:00",1341,1.446,131.1,3.837,0.06,25.51,111.7184,29.31,30.15,16.11,0,111.3,13.09,30.17,93.1
"2010-07-14 01:36:30",1342,1.335,133.9,5.2,0.115,25.53,111.7184,29.31,30.17,16.08,0,111.3,13.09,30.17,95.9
"2010-07-14 01:37:00",1343,1.258,136.9,5.947,0.073,25.52,111.7195,29.32,30.18,16.04,0,111.3,13.09,30.17,98.9
"2010-07-14 01:37:30",1344,1.268,142.9,1.916,0.066,25.54,111.7259,29.33,30.19,16,0,111.3,13.09,30.19,104.9
"2010-07-14 01:38:00",1345,1.305,140.2,3.413,0.119,25.53,111.7313,29.35,30.21,15.96,0,111.3,13.09,30.20,102.2
"2010-07-14 01:38:30",1346,1.324,143.1,7.193,0.072,25.57,111.7477,29.39,30.21,15.94,0,111.3,13.1,30.24,105.1
"2010-07-14 01:39:00",1347,1.367,153.4,4.368,0.09,25.56,111.7555,29.41,30.23,15.9,0,111.3,13.09,30.26,115.4
"2010-07-14 01:39:30",1348,1.2,158.2,4.093,0.083,25.61,111.7549,29.41,30.24,15.85,0,111.3,13.09,30.26,120.2
"2010-07-14 01:40:00",1349,1.257,169,5.064,0.064,25.65,111.7606,29.42,30.26,15.79,0,111.3,13.1,30.28,131.0
"2010-07-14 01:40:30",1350,1.103,178.6,3.534,0.084,25.63,111.7727,29.45,30.28,15.7,0,111.3,13.1,30.31,140.6
"2010-07-14 01:41:00",1351,0.934,188.4,4.301,0.037,25.6,111.7922,29.5,30.28,15.6,0,111.3,13.09,30.36,150.4
"2010-07-14 01:41:30",1352,0.885,196.7,1.65,0.041,25.66,111.8037,29.53,30.33,15.5,0,111.3,13.09,30.39,158.7
"2010-07-14 01:42:00",1353,0.726,196.2,2.126,0.033,25.74,111.8307,29.6,30.35,15.45,0,111.3,13.09,30.46,158.2
"2010-07-14 01:42:30",1354,0.673,190.1,4.959,0.072,25.72,111.837,29.62,30.38,15.38,0,111.3,13.09,30.47,152.1
"2010-07-14 01:43:00",1355,0.591,185.8,4.415,0.094,25.67,111.8556,29.67,30.42,15.32,0,111.3,13.09,30.52,147.8
"2010-07-14 01:43:30",1356,0.593,184.5,4.209,0.041,25.61,111.8641,29.69,30.44,15.29,0,111.3,13.09,30.54,146.5
"2010-07-14 01:44:00",1357,0.512,182.5,2.594,0.048,25.52,111.8644,29.69,30.47,15.28,0,111.3,13.09,30.54,144.5
"2010-07-14 01:44:30",1358,0.394,170.5,7.378,0.07,25.52,111.8666,29.69,30.49,15.22,0,111.3,13.09,30.55,132.5
"2010-07-14 01:45:00",1359,0.418,176.4,5.254,0.06,25.57,111.8748,29.72,30.5,15.18,0,111.3,13.09,30.57,138.4
"2010-07-14 01:45:30",1360,0.394,170.1,6.41,0.042,25.61,111.8847,29.74,30.53,15.15,0,111.3,13.09,30.60,132.1
"2010-07-14 01:46:00",1361,0.319,164.9,5.642,0.06,25.57,111.8964,29.77,30.55,15.13,0,111.3,13.09,30.63,126.9
"2010-07-14 01:46:30",1362,0.369,151.9,6.564,0.004,25.55,111.9006,29.78,30.58,15.11,0,111.3,13.09,30.64,113.9
"2010-07-14 01:47:00",1363,0.367,148.4,1.84,0.034,25.46,111.8984,29.78,30.58,15.11,0,111.3,13.09,30.63,110.4
"2010-07-14 01:47:30",1364,0.292,148,3.267,0.002,25.41,111.8959,29.77,30.58,15.1,0,111.3,13.09,30.63,110.0
"2010-07-14 01:48:00",1365,0.271,151.2,4.269,0.034,25.34,111.8921,29.76,30.61,15.1,0,111.3,13.09,30.62,113.2
"2010-07-14 01:48:30",1366,0.237,150.3,5.738,0.027,25.33,111.8937,29.76,30.61,15.09,0,111.3,13.09,30.62,112.3
"2010-07-14 01:49:00",1367,0.379,165.3,6.138,0.076,25.42,111.8905,29.76,30.61,15.04,0,111.3,13.09,30.61,127.3
"2010-07-14 01:49:30",1368,0.472,162.7,9.46,0.044,25.36,111.8918,29.76,30.62,15.05,0,111.3,13.09,30.61,124.7
"2010-07-14 01:50:00",1369,0.287,161.1,8.64,0.051,25.4,111.8896,29.75,30.62,15.01,0,111.3,13.09,30.61,123.1